THOR ABLESTAR DEB, 335

Orbit data source: Space-Track

THOR ABLESTAR DEB, 335 is space debris in LEO originally from a launch on Thu, 29 Jun 1961 UTC launched from the Air Force Eastern Test Range (AFETR). Debris objects in space refer to the collection of defunct objects orbiting the Earth. Examples of debris include non-operational satellites, rocket bodies, and fragments generated from explosions, collisions, or faulty payload assembly.

Loading next visibility...
Identifier
335, 1961-015DM
Orbit
LEO
Last TLE update
9 hours ago
Origin
Manufacturer
Unknown
Mission
Spacecraft
Bus & Motor
Unknown
Mass
Unknown
Launch date (UTC)
1961-06-29 (64 years ago)
Launch vehicle
Unknown
Launch site
Air Force Eastern Test Range (AFETR)
Object type
Payload
Rocket body
Debris
Shape & HBR
Unknown
Radar Cross Section
Small (<0.1 m²)

Expand to show TLE details & history

TLE from 9 hours ago
0 THOR ABLESTAR DEB
1 00335U 61015DM  25132.91693556  .00001088  00000-0  52713-3 0  9999
2 00335  66.8397  77.8379 0029925 108.7380 251.6967 14.21935222270384
Epoch: 2025-05-12T22:00Z
Definitive object data (Epoch: 2025-05-12T22:00:23.232Z)
Latitude
0.00003°
Longitude
-123.18204°
Altitude
827.748 km
Speed
7.436 km/s
True Right ascension
05h 11m 21s
True Declination
0° 00' 00"
Sunlit
Object was in daylight at TLE epoch
Visualization TLE readout
Latitude
23.99339°
Longitude
-113.18013°
Altitude
817.948 km
Speed
7.448 km/s
Apparent Right ascension
04h 38m 18s
Apparent Declination
-6° 11' 47"
Sunlit
Object is in daylight
Visualization observer readout
Local Sidereal Time
14:58:47
Azimuth
319.854° NNW
Elevation
-49.551°
Doppler factor
1
Orbital elements
Apogee altitude
838.712 km
Perigee altitude
795.648 km
Semi-major axis
7,195.317 km
Eccentricity
0.0029925
Inclination
66.8397°
RAAN
77.8379°
Arg. of periapsis
108.738°
True anomaly
251.37152°
Mean anomaly
251.6967°
Eccentric anomaly
251.53407°
Mean motion
3.55605 °/min
BSTAR
0.00052713
Orbital period
101.24 mins
Loading maneuver chart data...
Loading SW <> Apogee altitude chart data...

THOR ABLESTAR DEB Visibility forecast

Observer location: undefined°, undefined°

Span
Click to sort rows by Start time (UTC) header in descending order
Start Az.
Max El. time (UTC)
Max El. Az.
Max El.
End time (UTC)
End Az.
10 mins2025-05-13 06:59:09.550Z335.617° NNW2025-05-13 07:04:09.550Z35.957° NE42.771°2025-05-13 07:09:09.550Z142.109° SSE
4 mins2025-05-13 08:46:09.550Z276.751° WNW2025-05-13 08:48:09.550Z252.023° W14.725°2025-05-13 08:50:09.550Z228.515° WSW
9 mins2025-05-13 21:46:09.550Z202.031° SSW2025-05-13 21:50:09.550Z170.17° S43.717°2025-05-13 21:55:09.550Z31.873° NE
5 mins2025-05-13 23:33:09.550Z288.624° WNW2025-05-13 23:35:09.550Z314.117° NW16.803°2025-05-13 23:38:09.550Z351.03° N
|